This is the latest recevied weather packets stored in our database for station/object HB9EKO-12. If no packets are shown the sender has not sent any weather packets the latest 1 day(s).
| Time | Temp. | Humidity | Pressure | Rain* | Wind** | Luminosity | Snow |
|---|---|---|---|---|---|---|---|
| 1777992427 | 21.67° C | 51% | 1009 hPa | - | 0.89 m/s, 0° | - | - |
| 1777991522 | 21.11° C | 55% | 1009 hPa | - | 1.34 m/s, 0° | - | - |
| 1777990617 | 20.56° C | 57% | 1009 hPa | - | 0.45 m/s, 0° | - | - |
| 1777989712 | 19.44° C | 63% | 1009 hPa | - | 2.24 m/s, 0° | - | - |
| 1777988806 | 17.22° C | 68% | 1009 hPa | - | 3.58 m/s, 0° | - | - |
| 1777987901 | 17.22° C | 68% | 1009 hPa | - | 1.79 m/s, 0° | - | - |
| 1777986996 | 17.22° C | 71% | 1010 hPa | - | 0 m/s | - | - |
| 1777986091 | 17.78° C | 73% | 1010 hPa | - | 0 m/s | - | - |
| 1777985186 | 17.22° C | 70% | 1010 hPa | - | 0 m/s | - | - |
| 1777984280 | 16.67° C | 78% | 1010 hPa | - | 0 m/s | - | - |
| 1777983375 | 16.11° C | 79% | 1010 hPa | - | 0.45 m/s, 0° | - | - |
| 1777982470 | 16.11° C | 82% | 1010 hPa | - | 1.34 m/s, 0° | - | - |
| 1777981565 | 16.11° C | 84% | 1010 hPa | - | 0 m/s | - | - |
| 1777980659 | 15.56° C | 87% | 1010 hPa | - | 0 m/s | - | - |
| 1777979754 | 15° C | 93% | 1010 hPa | - | 0 m/s | - | - |
| 1777978849 | 14.44° C | 92% | 1010 hPa | - | 0.45 m/s, 0° | - | - |
| 1777977944 | 13.89° C | 94% | 1010 hPa | - | 0 m/s | - | - |
| 1777977038 | 13.33° C | 95% | 1010 hPa | - | 1.34 m/s, 0° | - | - |
| 1777976133 | 13.89° C | 96% | 1010 hPa | - | 0.89 m/s, 0° | - | - |
| 1777975228 | 13.89° C | 10% | - | - | 0 m/s | - | - |
| 1777974323 | 12.78° C | 99% | 1011 hPa | - | 2.24 m/s, 0° | - | - |
| 1777973417 | 13.33° C | 98% | 1010 hPa | - | 0 m/s | - | - |
| 1777972512 | 12.78° C | 97% | 1011 hPa | - | 0 m/s | - | - |
| 1777971607 | 13.33° C | 95% | 1011 hPa | - | 0 m/s | - | - |
| 1777970702 | 13.89° C | 92% | 1011 hPa | - | 0 m/s | - | - |
* Rain since midnight (hover to see other rain measurements)
** Current wind speed in m/s (hover to see current wind gust speed)